owner,sensor,date,latitude,longitude,vertical_datum,wind_speed,wind_to_direction,wind_speed_of_gust,qcFlag 
TCOON,ioos:station:TCOON:146:1,2014-11-01T01:30:00Z,28.1324,-97.0345,0.0,6.6,4.0,7.6,'1111122,1111122,1111122' 
TCOON,ioos:station:TCOON:146:1,2014-11-01T02:30:00Z,28.1324,-97.0345,0.0,6.4,9.0,7.7,'1111122,1111122,1111122' 
TCOON,ioos:station:TCOON:146:1,2014-11-01T03:30:00Z,28.1324,-97.0345,0.0,7.2,13.0,9.0,'1111122,1111122,1111122' 
TCOON,ioos:station:TCOON:146:1,2014-11-01T04:30:00Z,28.1324,-97.0345,0.0,6.9,23.0,8.1,'1111122,1111122,1111122' 
TCOON,ioos:station:TCOON:146:1,2014-11-01T05:30:00Z,28.1324,-97.0345,0.0,7.0,20.0,8.5,'1111122,1111122,1111122' 
TCOON,ioos:station:TCOON:146:1,2014-11-01T07:00:00Z,28.1324,-97.0345,0.0,8.2,17.0,9.8,'1111122,1111122,1111122' 
TCOON,ioos:station:TCOON:146:1,2014-11-01T07:30:00Z,28.1324,-97.0345,0.0,7.3,22.0,8.8,'1111122,1111122,1111122' 
TCOON,ioos:station:TCOON:146:1,2014-11-01T08:30:00Z,28.1324,-97.0345,0.0,7.0,20.0,8.5,'1111122,1111122,1111122' 
TCOON,ioos:station:TCOON:146:1,2014-11-01T09:30:00Z,28.1324,-97.0345,0.0,7.0,20.0,8.2,'1111122,1111122,1111122' 
TCOON,ioos:station:TCOON:146:1,2014-11-01T13:30:00Z,28.1324,-97.0345,0.0,7.1,25.0,8.1,'1111122,1111122,1111122' 
TCOON,ioos:station:TCOON:146:1,2014-11-01T14:30:00Z,28.1324,-97.0345,0.0,7.3,36.0,9.7,'1111122,1111122,1111122' 
TCOON,ioos:station:TCOON:146:1,2014-11-01T15:30:00Z,28.1324,-97.0345,0.0,7.9,47.0,9.6,'1111122,1111122,1111122' 
TCOON,ioos:station:TCOON:146:1,2014-11-01T17:30:00Z,28.1324,-97.0345,0.0,6.8,57.0,8.8,'1111122,1111122,1111122' 
TCOON,ioos:station:TCOON:146:1,2014-11-01T20:30:00Z,28.1324,-97.0345,0.0,7.3,66.0,9.4,'1111122,1111122,1111122' 
TCOON,ioos:station:TCOON:146:1,2014-11-01T21:30:00Z,28.1324,-97.0345,0.0,6.1,83.0,8.4,'1111122,1111122,1111122' 
TCOON,ioos:station:TCOON:146:1,2014-11-01T22:30:00Z,28.1324,-97.0345,0.0,8.1,77.0,10.3,'1111122,1111122,1111122' 
TCOON,ioos:station:TCOON:146:1,2014-11-02T00:30:00Z,28.1324,-97.0345,0.0,7.7,79.0,9.4,'1111122,1111122,1111122' 
TCOON,ioos:station:TCOON:146:1,2014-11-02T01:30:00Z,28.1324,-97.0345,0.0,7.9,81.0,9.2,'1111122,1111122,1111122' 
TCOON,ioos:station:TCOON:146:1,2014-11-02T02:30:00Z,28.1324,-97.0345,0.0,7.6,82.0,8.9,'1111122,1111122,1111122' 
TCOON,ioos:station:TCOON:146:1,2014-11-02T03:30:00Z,28.1324,-97.0345,0.0,7.8,88.0,9.4,'1111122,1111122,1111122' 
TCOON,ioos:station:TCOON:146:1,2014-11-02T04:30:00Z,28.1324,-97.0345,0.0,8.3,97.0,9.6,'1111122,1111122,1111122' 
TCOON,ioos:station:TCOON:146:1,2014-11-02T05:30:00Z,28.1324,-97.0345,0.0,7.9,101.0,9.3,'1111122,1111122,1111122' 
TCOON,ioos:station:TCOON:146:1,2014-11-02T06:30:00Z,28.1324,-97.0345,0.0,6.3,110.0,7.7,'1111122,1111122,1111122' 
TCOON,ioos:station:TCOON:146:1,2014-11-02T07:30:00Z,28.1324,-97.0345,0.0,6.5,101.0,7.9,'1111122,1111122,1111122' 
TCOON,ioos:station:TCOON:146:1,2014-11-02T08:30:00Z,28.1324,-97.0345,0.0,5.9,106.0,7.4,'1111122,1111122,1111122' 
TCOON,ioos:station:TCOON:146:1,2014-11-02T09:30:00Z,28.1324,-97.0345,0.0,5.6,113.0,7.2,'1111122,1111122,1111122' 
TCOON,ioos:station:TCOON:146:1,2014-11-02T10:30:00Z,28.1324,-97.0345,0.0,5.2,111.0,6.7,'1111122,1111122,1111122' 
TCOON,ioos:station:TCOON:146:1,2014-11-02T11:30:00Z,28.1324,-97.0345,0.0,5.2,123.0,6.8,'1111122,1111122,1111122' 
TCOON,ioos:station:TCOON:146:1,2014-11-02T12:30:00Z,28.1324,-97.0345,0.0,5.2,113.0,7.1,'1111122,1111122,1111122' 
TCOON,ioos:station:TCOON:146:1,2014-11-02T13:30:00Z,28.1324,-97.0345,0.0,6.1,114.0,7.2,'1111122,1111122,1111122' 
TCOON,ioos:station:TCOON:146:1,2014-11-02T14:30:00Z,28.1324,-97.0345,0.0,6.5,104.0,8.0,'1111122,1111122,1111122' 
TCOON,ioos:station:TCOON:146:1,2014-11-02T15:30:00Z,28.1324,-97.0345,0.0,5.9,108.0,7.6,'1111122,1111122,1111122' 
TCOON,ioos:station:TCOON:146:1,2014-11-02T16:30:00Z,28.1324,-97.0345,0.0,5.2,115.0,7.5,'1111122,1111122,1111122' 
TCOON,ioos:station:TCOON:146:1,2014-11-02T18:30:00Z,28.1324,-97.0345,0.0,5.8,118.0,7.4,'1111122,1111122,1111122' 
TCOON,ioos:station:TCOON:146:1,2014-11-02T20:30:00Z,28.1324,-97.0345,0.0,5.4,118.0,7.5,'1111122,1111122,1111122' 
TCOON,ioos:station:TCOON:146:1,2014-11-02T22:30:00Z,28.1324,-97.0345,0.0,6.1,112.0,7.9,'1111122,1111122,1111122' 
TCOON,ioos:station:TCOON:146:1,2014-11-03T00:30:00Z,28.1324,-97.0345,0.0,6.2,110.0,7.8,'1111122,1111122,1111122' 
TCOON,ioos:station:TCOON:146:1,2014-11-03T01:30:00Z,28.1324,-97.0345,0.0,6.4,111.0,8.1,'1111122,1111122,1111122' 
TCOON,ioos:station:TCOON:146:1,2014-11-03T02:30:00Z,28.1324,-97.0345,0.0,6.7,121.0,8.4,'1111122,1111122,1111122' 
TCOON,ioos:station:TCOON:146:1,2014-11-03T03:30:00Z,28.1324,-97.0345,0.0,7.6,126.0,9.5,'1111122,1111122,1111122' 
TCOON,ioos:station:TCOON:146:1,2014-11-03T04:30:00Z,28.1324,-97.0345,0.0,7.9,130.0,10.3,'1111122,1111122,1111122' 
TCOON,ioos:station:TCOON:146:1,2014-11-03T05:30:00Z,28.1324,-97.0345,0.0,7.8,135.0,9.3,'1111122,1111122,1111122' 
TCOON,ioos:station:TCOON:146:1,2014-11-03T06:30:00Z,28.1324,-97.0345,0.0,8.2,138.0,9.4,'1111122,1111122,1111122' 
TCOON,ioos:station:TCOON:146:1,2014-11-03T07:30:00Z,28.1324,-97.0345,0.0,6.9,139.0,8.0,'1111122,1111122,1111122' 
TCOON,ioos:station:TCOON:146:1,2014-11-03T08:30:00Z,28.1324,-97.0345,0.0,7.8,137.0,10.0,'1111122,1111122,1111122' 
TCOON,ioos:station:TCOON:146:1,2014-11-03T10:30:00Z,28.1324,-97.0345,0.0,7.7,148.0,9.3,'1111122,1111122,1111122' 
TCOON,ioos:station:TCOON:146:1,2014-11-03T11:30:00Z,28.1324,-97.0345,0.0,7.4,134.0,8.9,'1111122,1111122,1111122' 
TCOON,ioos:station:TCOON:146:1,2014-11-03T12:30:00Z,28.1324,-97.0345,0.0,6.5,134.0,7.8,'1111122,1111122,1111122' 
TCOON,ioos:station:TCOON:146:1,2014-11-03T13:30:00Z,28.1324,-97.0345,0.0,7.2,138.0,8.6,'1111122,1111122,1111122' 
TCOON,ioos:station:TCOON:146:1,2014-11-03T14:30:00Z,28.1324,-97.0345,0.0,6.3,140.0,8.2,'1111122,1111122,1111122' 
TCOON,ioos:station:TCOON:146:1,2014-11-03T15:30:00Z,28.1324,-97.0345,0.0,7.1,136.0,8.6,'1111122,1111122,1111122' 
TCOON,ioos:station:TCOON:146:1,2014-11-03T16:30:00Z,28.1324,-97.0345,0.0,7.7,136.0,9.5,'1111122,1111122,1111122' 
TCOON,ioos:station:TCOON:146:1,2014-11-03T17:30:00Z,28.1324,-97.0345,0.0,7.2,132.0,9.2,'1111122,1111122,1111122' 
TCOON,ioos:station:TCOON:146:1,2014-11-03T18:30:00Z,28.1324,-97.0345,0.0,8.0,134.0,9.4,'1111122,1111122,1111122' 
TCOON,ioos:station:TCOON:146:1,2014-11-03T21:30:00Z,28.1324,-97.0345,0.0,8.8,138.0,10.9,'1111122,1111122,1111122' 
TCOON,ioos:station:TCOON:146:1,2014-11-03T23:00:00Z,28.1324,-97.0345,0.0,7.1,132.0,8.8,'1111122,1111122,1111122' 
TCOON,ioos:station:TCOON:146:1,2014-11-03T23:30:00Z,28.1324,-97.0345,0.0,7.2,132.0,8.5,'1111122,1111122,1111122' 
TCOON,ioos:station:TCOON:146:1,2014-11-04T02:30:00Z,28.1324,-97.0345,0.0,8.4,133.0,10.2,'1111122,1111122,1111122' 
TCOON,ioos:station:TCOON:146:1,2014-11-04T03:30:00Z,28.1324,-97.0345,0.0,8.2,138.0,10.0,'1111122,1111122,1111122' 
TCOON,ioos:station:TCOON:146:1,2014-11-04T04:30:00Z,28.1324,-97.0345,0.0,8.3,141.0,9.9,'1111122,1111122,1111122' 
TCOON,ioos:station:TCOON:146:1,2014-11-04T06:30:00Z,28.1324,-97.0345,0.0,7.9,144.0,9.0,'1111122,1111122,1111122' 
TCOON,ioos:station:TCOON:146:1,2014-11-04T07:30:00Z,28.1324,-97.0345,0.0,7.8,152.0,9.1,'1111122,1111122,1111122' 
TCOON,ioos:station:TCOON:146:1,2014-11-04T08:30:00Z,28.1324,-97.0345,0.0,7.5,150.0,9.4,'1111122,1111122,1111122' 
TCOON,ioos:station:TCOON:146:1,2014-11-04T09:30:00Z,28.1324,-97.0345,0.0,7.5,158.0,9.0,'1111122,1111122,1111122' 
TCOON,ioos:station:TCOON:146:1,2014-11-04T12:30:00Z,28.1324,-97.0345,0.0,5.3,148.0,6.4,'1111122,1111122,1111122' 
TCOON,ioos:station:TCOON:146:1,2014-11-04T13:30:00Z,28.1324,-97.0345,0.0,3.1,146.0,3.8,'1111122,1111122,1111122' 
TCOON,ioos:station:TCOON:146:1,2014-11-04T15:30:00Z,28.1324,-97.0345,0.0,4.6,149.0,5.9,'1111122,1111122,1111122' 
TCOON,ioos:station:TCOON:146:1,2014-11-04T17:00:00Z,28.1324,-97.0345,0.0,7.1,148.0,8.0,'1111122,1111122,1111122' 
TCOON,ioos:station:TCOON:146:1,2014-11-04T17:30:00Z,28.1324,-97.0345,0.0,6.5,147.0,7.6,'1111122,1111122,1111122' 
TCOON,ioos:station:TCOON:146:1,2014-11-04T19:30:00Z,28.1324,-97.0345,0.0,5.0,149.0,5.9,'1111122,1111122,1111122' 
TCOON,ioos:station:TCOON:146:1,2014-11-04T20:30:00Z,28.1324,-97.0345,0.0,6.7,135.0,8.3,'1111122,1111122,1111122' 
TCOON,ioos:station:TCOON:146:1,2014-11-04T21:30:00Z,28.1324,-97.0345,0.0,5.3,125.0,6.4,'1111122,1111122,1111122' 
TCOON,ioos:station:TCOON:146:1,2014-11-04T23:00:00Z,28.1324,-97.0345,0.0,5.0,132.0,5.9,'1111122,1111122,1111122' 
TCOON,ioos:station:TCOON:146:1,2014-11-04T23:30:00Z,28.1324,-97.0345,0.0,4.3,133.0,5.3,'1111122,1111122,1111122' 
TCOON,ioos:station:TCOON:146:1,2014-11-05T00:30:00Z,28.1324,-97.0345,0.0,3.4,136.0,4.4,'1111122,1111122,1111122' 
TCOON,ioos:station:TCOON:146:1,2014-11-05T01:30:00Z,28.1324,-97.0345,0.0,3.9,135.0,5.1,'1111122,1111122,1111122' 
TCOON,ioos:station:TCOON:146:1,2014-11-05T02:30:00Z,28.1324,-97.0345,0.0,4.9,164.0,6.5,'1111122,1111122,1111122' 
TCOON,ioos:station:TCOON:146:1,2014-11-05T03:30:00Z,28.1324,-97.0345,0.0,2.8,118.0,4.7,'1111122,1111122,1111122' 
TCOON,ioos:station:TCOON:146:1,2014-11-05T04:30:00Z,28.1324,-97.0345,0.0,2.2,134.0,3.1,'1111122,1111122,1111122' 
TCOON,ioos:station:TCOON:146:1,2014-11-05T05:30:00Z,28.1324,-97.0345,0.0,3.4,150.0,4.4,'1111122,1111122,1111122' 
TCOON,ioos:station:TCOON:146:1,2014-11-05T06:30:00Z,28.1324,-97.0345,0.0,3.7,150.0,4.3,'1111122,1111122,1111122' 
TCOON,ioos:station:TCOON:146:1,2014-11-05T07:30:00Z,28.1324,-97.0345,0.0,3.8,151.0,4.4,'1111122,1111122,1111122' 
TCOON,ioos:station:TCOON:146:1,2014-11-05T09:30:00Z,28.1324,-97.0345,0.0,7.0,181.0,10.4,'1111122,1111122,1111122' 
TCOON,ioos:station:TCOON:146:1,2014-11-05T10:30:00Z,28.1324,-97.0345,0.0,5.8,199.0,7.5,'1111122,1111122,1111122' 
TCOON,ioos:station:TCOON:146:1,2014-11-05T11:30:00Z,28.1324,-97.0345,0.0,5.4,235.0,7.3,'1111122,1111122,1111122' 
TCOON,ioos:station:TCOON:146:1,2014-11-05T12:30:00Z,28.1324,-97.0345,0.0,4.1,255.0,4.8,'1111122,1111122,1111122' 
TCOON,ioos:station:TCOON:146:1,2014-11-05T13:30:00Z,28.1324,-97.0345,0.0,4.0,336.0,4.6,'1111122,1111122,1111122' 
TCOON,ioos:station:TCOON:146:1,2014-11-05T14:30:00Z,28.1324,-97.0345,0.0,5.4,336.0,6.0,'1111122,1111122,1111122' 
TCOON,ioos:station:TCOON:146:1,2014-11-05T15:30:00Z,28.1324,-97.0345,0.0,6.6,19.0,7.4,'1111122,1111122,1111122' 
TCOON,ioos:station:TCOON:146:1,2014-11-05T16:30:00Z,28.1324,-97.0345,0.0,6.5,9.0,7.7,'1111122,1111122,1111122' 
TCOON,ioos:station:TCOON:146:1,2014-11-05T18:30:00Z,28.1324,-97.0345,0.0,6.8,354.0,8.6,'1111122,1111122,1111122' 
TCOON,ioos:station:TCOON:146:1,2014-11-05T20:30:00Z,28.1324,-97.0345,0.0,7.5,26.0,9.1,'1111122,1111122,1111122' 
TCOON,ioos:station:TCOON:146:1,2014-11-05T21:30:00Z,28.1324,-97.0345,0.0,7.1,12.0,8.5,'1111122,1111122,1111122' 
TCOON,ioos:station:TCOON:146:1,2014-11-05T22:30:00Z,28.1324,-97.0345,0.0,8.2,5.0,9.7,'1111122,1111122,1111122' 
TCOON,ioos:station:TCOON:146:1,2014-11-05T23:30:00Z,28.1324,-97.0345,0.0,7.8,12.0,9.4,'1111122,1111122,1111122' 
TCOON,ioos:station:TCOON:146:1,2014-11-06T00:30:00Z,28.1324,-97.0345,0.0,8.9,355.0,10.3,'1111122,1111122,1111122' 
TCOON,ioos:station:TCOON:146:1,2014-11-06T01:30:00Z,28.1324,-97.0345,0.0,9.9,11.0,12.0,'1111122,1111122,1111122' 
TCOON,ioos:station:TCOON:146:1,2014-11-06T02:30:00Z,28.1324,-97.0345,0.0,10.0,11.0,11.5,'1111122,1111122,1111122' 
TCOON,ioos:station:TCOON:146:1,2014-11-06T03:30:00Z,28.1324,-97.0345,0.0,8.9,7.0,11.1,'1111122,1111122,1111122' 
TCOON,ioos:station:TCOON:146:1,2014-11-06T04:30:00Z,28.1324,-97.0345,0.0,7.7,351.0,9.7,'1111122,1111122,1111122' 
TCOON,ioos:station:TCOON:146:1,2014-11-06T05:30:00Z,28.1324,-97.0345,0.0,8.0,11.0,11.0,'1111122,1111122,1111122' 
TCOON,ioos:station:TCOON:146:1,2014-11-06T06:30:00Z,28.1324,-97.0345,0.0,8.1,17.0,10.0,'1111122,1111122,1111122' 
TCOON,ioos:station:TCOON:146:1,2014-11-06T07:30:00Z,28.1324,-97.0345,0.0,7.8,14.0,9.4,'1111122,1111122,1111122' 
TCOON,ioos:station:TCOON:146:1,2014-11-06T08:30:00Z,28.1324,-97.0345,0.0,9.5,4.0,10.9,'1111122,1111122,1111122' 
TCOON,ioos:station:TCOON:146:1,2014-11-06T10:30:00Z,28.1324,-97.0345,0.0,7.6,24.0,9.1,'1111122,1111122,1111122' 
TCOON,ioos:station:TCOON:146:1,2014-11-06T11:30:00Z,28.1324,-97.0345,0.0,7.5,38.0,9.2,'1111122,1111122,1111122' 
TCOON,ioos:station:TCOON:146:1,2014-11-06T12:30:00Z,28.1324,-97.0345,0.0,6.3,36.0,7.7,'1111122,1111122,1111122' 
TCOON,ioos:station:TCOON:146:1,2014-11-06T14:30:00Z,28.1324,-97.0345,0.0,9.2,19.0,11.3,'1111122,1111122,1111122' 
TCOON,ioos:station:TCOON:146:1,2014-11-06T15:30:00Z,28.1324,-97.0345,0.0,8.6,15.0,10.3,'1111122,1111122,1111122' 
TCOON,ioos:station:TCOON:146:1,2014-11-06T16:30:00Z,28.1324,-97.0345,0.0,9.6,15.0,11.9,'1111122,1111122,1111122' 
TCOON,ioos:station:TCOON:146:1,2014-11-06T17:30:00Z,28.1324,-97.0345,0.0,9.1,24.0,11.1,'1111122,1111122,1111122' 
TCOON,ioos:station:TCOON:146:1,2014-11-06T20:30:00Z,28.1324,-97.0345,0.0,9.2,24.0,11.1,'1111122,1111122,1111122' 
TCOON,ioos:station:TCOON:146:1,2014-11-06T23:00:00Z,28.1324,-97.0345,0.0,9.2,16.0,10.9,'1111122,1111122,1111122' 
TCOON,ioos:station:TCOON:146:1,2014-11-06T23:30:00Z,28.1324,-97.0345,0.0,8.9,15.0,10.6,'1111122,1111122,1111122' 
TCOON,ioos:station:TCOON:146:1,2014-11-07T01:30:00Z,28.1324,-97.0345,0.0,7.8,15.0,9.3,'1111122,1111122,1111122' 
TCOON,ioos:station:TCOON:146:1,2014-11-07T02:30:00Z,28.1324,-97.0345,0.0,9.3,4.0,11.0,'1111122,1111122,1111122' 
TCOON,ioos:station:TCOON:146:1,2014-11-07T03:30:00Z,28.1324,-97.0345,0.0,7.0,19.0,9.4,'1111122,1111122,1111122' 
TCOON,ioos:station:TCOON:146:1,2014-11-07T04:30:00Z,28.1324,-97.0345,0.0,6.5,33.0,7.9,'1111122,1111122,1111122' 
TCOON,ioos:station:TCOON:146:1,2014-11-07T05:30:00Z,28.1324,-97.0345,0.0,6.0,16.0,7.5,'1111122,1111122,1111122' 
TCOON,ioos:station:TCOON:146:1,2014-11-07T06:30:00Z,28.1324,-97.0345,0.0,6.6,1.0,7.8,'1111122,1111122,1111122' 
TCOON,ioos:station:TCOON:146:1,2014-11-07T07:30:00Z,28.1324,-97.0345,0.0,5.4,356.0,6.7,'1111122,1111122,1111122' 
TCOON,ioos:station:TCOON:146:1,2014-11-07T08:30:00Z,28.1324,-97.0345,0.0,7.0,19.0,8.7,'1111122,1111122,1111122' 
TCOON,ioos:station:TCOON:146:1,2014-11-07T09:30:00Z,28.1324,-97.0345,0.0,6.5,22.0,7.5,'1111122,1111122,1111122' 
TCOON,ioos:station:TCOON:146:1,2014-11-07T10:30:00Z,28.1324,-97.0345,0.0,6.2,22.0,7.3,'1111122,1111122,1111122' 
TCOON,ioos:station:TCOON:146:1,2014-11-07T11:30:00Z,28.1324,-97.0345,0.0,5.7,15.0,6.9,'1111122,1111122,1111122' 
TCOON,ioos:station:TCOON:146:1,2014-11-07T12:30:00Z,28.1324,-97.0345,0.0,5.7,8.0,6.7,'1111122,1111122,1111122' 
TCOON,ioos:station:TCOON:146:1,2014-11-07T13:30:00Z,28.1324,-97.0345,0.0,6.7,5.0,7.8,'1111122,1111122,1111122' 
TCOON,ioos:station:TCOON:146:1,2014-11-07T14:30:00Z,28.1324,-97.0345,0.0,6.8,354.0,8.1,'1111122,1111122,1111122' 
TCOON,ioos:station:TCOON:146:1,2014-11-07T15:30:00Z,28.1324,-97.0345,0.0,6.7,12.0,8.3,'1111122,1111122,1111122' 
TCOON,ioos:station:TCOON:146:1,2014-11-07T16:30:00Z,28.1324,-97.0345,0.0,6.6,17.0,7.9,'1111122,1111122,1111122' 
TCOON,ioos:station:TCOON:146:1,2014-11-07T17:30:00Z,28.1324,-97.0345,0.0,6.8,31.0,8.6,'1111122,1111122,1111122' 
TCOON,ioos:station:TCOON:146:1,2014-11-07T18:30:00Z,28.1324,-97.0345,0.0,3.7,12.0,4.9,'1111122,1111122,1111122' 
TCOON,ioos:station:TCOON:146:1,2014-11-07T19:30:00Z,28.1324,-97.0345,0.0,4.3,326.0,5.5,'1111122,1111122,1111122' 
TCOON,ioos:station:TCOON:146:1,2014-11-07T20:30:00Z,28.1324,-97.0345,0.0,4.7,21.0,6.7,'1111122,1111122,1111122' 
TCOON,ioos:station:TCOON:146:1,2014-11-07T21:30:00Z,28.1324,-97.0345,0.0,3.8,1.0,5.0,'1111122,1111122,1111122' 
TCOON,ioos:station:TCOON:146:1,2014-11-07T22:30:00Z,28.1324,-97.0345,0.0,5.0,359.0,6.1,'1111122,1111122,1111122' 
TCOON,ioos:station:TCOON:146:1,2014-11-07T23:30:00Z,28.1324,-97.0345,0.0,3.8,16.0,5.2,'1111122,1111122,1111122' 
TCOON,ioos:station:TCOON:146:1,2014-11-08T00:30:00Z,28.1324,-97.0345,0.0,5.3,339.0,5.9,'1111122,1111122,1111122' 
TCOON,ioos:station:TCOON:146:1,2014-11-08T01:30:00Z,28.1324,-97.0345,0.0,2.9,340.0,3.9,'1111122,1111122,1111122' 
TCOON,ioos:station:TCOON:146:1,2014-11-08T02:30:00Z,28.1324,-97.0345,0.0,3.0,17.0,3.9,'1111122,1111122,1111122' 
TCOON,ioos:station:TCOON:146:1,2014-11-08T03:30:00Z,28.1324,-97.0345,0.0,3.0,41.0,3.7,'1111122,1111122,1111122' 
TCOON,ioos:station:TCOON:146:1,2014-11-08T04:30:00Z,28.1324,-97.0345,0.0,2.8,356.0,3.5,'1111122,1111122,1111122' 
TCOON,ioos:station:TCOON:146:1,2014-11-08T05:30:00Z,28.1324,-97.0345,0.0,2.8,44.0,3.4,'1111122,1111122,1111122' 
TCOON,ioos:station:TCOON:146:1,2014-11-08T06:30:00Z,28.1324,-97.0345,0.0,2.4,50.0,3.3,'1111122,1111122,1111122' 
TCOON,ioos:station:TCOON:146:1,2014-11-08T07:30:00Z,28.1324,-97.0345,0.0,1.0,188.0,2.2,'1111122,1111122,1111122' 
TCOON,ioos:station:TCOON:146:1,2014-11-08T08:30:00Z,28.1324,-97.0345,0.0,2.8,339.0,3.6,'1111122,1111122,1111122' 
TCOON,ioos:station:TCOON:146:1,2014-11-08T09:30:00Z,28.1324,-97.0345,0.0,3.6,349.0,4.5,'1111122,1111122,1111122' 
TCOON,ioos:station:TCOON:146:1,2014-11-08T10:30:00Z,28.1324,-97.0345,0.0,2.7,337.0,3.5,'1111122,1111122,1111122' 
TCOON,ioos:station:TCOON:146:1,2014-11-08T11:30:00Z,28.1324,-97.0345,0.0,3.5,22.0,4.3,'1111122,1111122,1111122' 
TCOON,ioos:station:TCOON:146:1,2014-11-08T12:30:00Z,28.1324,-97.0345,0.0,1.9,36.0,2.9,'1111122,1111122,1111122' 
TCOON,ioos:station:TCOON:146:1,2014-11-08T13:30:00Z,28.1324,-97.0345,0.0,3.9,346.0,4.6,'1111122,1111122,1111122' 
TCOON,ioos:station:TCOON:146:1,2014-11-08T14:30:00Z,28.1324,-97.0345,0.0,1.9,14.0,2.7,'1111122,1111122,1111122' 
TCOON,ioos:station:TCOON:146:1,2014-11-08T15:30:00Z,28.1324,-97.0345,0.0,2.2,11.0,3.0,'1111122,1111122,1111122' 
TCOON,ioos:station:TCOON:146:1,2014-11-08T16:30:00Z,28.1324,-97.0345,0.0,4.4,30.0,5.5,'1111122,1111122,1111122' 
TCOON,ioos:station:TCOON:146:1,2014-11-08T17:30:00Z,28.1324,-97.0345,0.0,0.6,61.0,1.6,'1111122,1111122,1111122' 
TCOON,ioos:station:TCOON:146:1,2014-11-08T18:30:00Z,28.1324,-97.0345,0.0,0.1,171.0,0.6,'1111122,1111122,1111122' 
TCOON,ioos:station:TCOON:146:1,2014-11-08T19:30:00Z,28.1324,-97.0345,0.0,2.4,217.0,3.3,'1111122,1111122,1111122' 
TCOON,ioos:station:TCOON:146:1,2014-11-08T20:30:00Z,28.1324,-97.0345,0.0,2.1,215.0,2.4,'1111122,1111122,1111122' 
TCOON,ioos:station:TCOON:146:1,2014-11-08T21:30:00Z,28.1324,-97.0345,0.0,1.7,211.0,2.3,'1111122,1111122,1111122' 
TCOON,ioos:station:TCOON:146:1,2014-11-08T22:30:00Z,28.1324,-97.0345,0.0,2.4,107.0,3.6,'1111122,1111122,1111122' 
TCOON,ioos:station:TCOON:146:1,2014-11-09T01:30:00Z,28.1324,-97.0345,0.0,2.1,183.0,2.4,'1111122,1111122,1111122' 
TCOON,ioos:station:TCOON:146:1,2014-11-09T02:30:00Z,28.1324,-97.0345,0.0,1.6,231.0,2.1,'1111122,1111122,1111122' 
TCOON,ioos:station:TCOON:146:1,2014-11-09T03:30:00Z,28.1324,-97.0345,0.0,3.3,317.0,6.0,'1111122,1111122,1111122' 
TCOON,ioos:station:TCOON:146:1,2014-11-09T04:30:00Z,28.1324,-97.0345,0.0,7.2,3.0,8.6,'1111122,1111122,1111122' 
TCOON,ioos:station:TCOON:146:1,2014-11-09T05:30:00Z,28.1324,-97.0345,0.0,4.9,15.0,6.0,'1111122,1111122,1111122' 
TCOON,ioos:station:TCOON:146:1,2014-11-09T06:30:00Z,28.1324,-97.0345,0.0,4.9,14.0,6.0,'1111122,1111122,1111122' 
TCOON,ioos:station:TCOON:146:1,2014-11-09T07:30:00Z,28.1324,-97.0345,0.0,5.1,7.0,6.1,'1111122,1111122,1111122' 
TCOON,ioos:station:TCOON:146:1,2014-11-09T08:30:00Z,28.1324,-97.0345,0.0,4.5,3.0,5.2,'1111122,1111122,1111122' 
TCOON,ioos:station:TCOON:146:1,2014-11-09T10:30:00Z,28.1324,-97.0345,0.0,5.1,350.0,6.0,'1111122,1111122,1111122' 
TCOON,ioos:station:TCOON:146:1,2014-11-09T12:30:00Z,28.1324,-97.0345,0.0,6.6,342.0,8.4,'1111122,1111122,1111122' 
TCOON,ioos:station:TCOON:146:1,2014-11-09T13:30:00Z,28.1324,-97.0345,0.0,6.0,346.0,7.6,'1111122,1111122,1111122' 
TCOON,ioos:station:TCOON:146:1,2014-11-09T14:30:00Z,28.1324,-97.0345,0.0,5.4,358.0,6.5,'1111122,1111122,1111122' 
TCOON,ioos:station:TCOON:146:1,2014-11-09T15:30:00Z,28.1324,-97.0345,0.0,4.7,6.0,5.4,'1111122,1111122,1111122' 
TCOON,ioos:station:TCOON:146:1,2014-11-09T16:30:00Z,28.1324,-97.0345,0.0,2.3,349.0,2.8,'1111122,1111122,1111122' 
TCOON,ioos:station:TCOON:146:1,2014-11-09T17:30:00Z,28.1324,-97.0345,0.0,1.6,241.0,2.1,'1111122,1111122,1111122' 
TCOON,ioos:station:TCOON:146:1,2014-11-09T19:30:00Z,28.1324,-97.0345,0.0,3.3,223.0,3.8,'1111122,1111122,1111122' 
TCOON,ioos:station:TCOON:146:1,2014-11-09T20:30:00Z,28.1324,-97.0345,0.0,3.0,203.0,3.4,'1111122,1111122,1111122' 
TCOON,ioos:station:TCOON:146:1,2014-11-09T21:30:00Z,28.1324,-97.0345,0.0,4.0,204.0,4.4,'1111122,1111122,1111122' 
TCOON,ioos:station:TCOON:146:1,2014-11-09T22:30:00Z,28.1324,-97.0345,0.0,3.3,189.0,4.5,'1111122,1111122,1111122' 
TCOON,ioos:station:TCOON:146:1,2014-11-10T00:30:00Z,28.1324,-97.0345,0.0,4.2,158.0,4.9,'1111122,1111122,1111122' 
TCOON,ioos:station:TCOON:146:1,2014-11-10T01:30:00Z,28.1324,-97.0345,0.0,3.9,162.0,4.6,'1111122,1111122,1111122' 
TCOON,ioos:station:TCOON:146:1,2014-11-10T02:30:00Z,28.1324,-97.0345,0.0,4.5,156.0,5.1,'1111122,1111122,1111122' 
TCOON,ioos:station:TCOON:146:1,2014-11-10T03:30:00Z,28.1324,-97.0345,0.0,3.4,173.0,4.0,'1111122,1111122,1111122' 
TCOON,ioos:station:TCOON:146:1,2014-11-10T04:30:00Z,28.1324,-97.0345,0.0,4.2,170.0,5.1,'1111122,1111122,1111122' 
TCOON,ioos:station:TCOON:146:1,2014-11-10T05:30:00Z,28.1324,-97.0345,0.0,3.8,174.0,4.4,'1111122,1111122,1111122' 
TCOON,ioos:station:TCOON:146:1,2014-11-10T06:30:00Z,28.1324,-97.0345,0.0,4.0,176.0,4.8,'1111122,1111122,1111122' 
TCOON,ioos:station:TCOON:146:1,2014-11-10T07:30:00Z,28.1324,-97.0345,0.0,3.7,178.0,4.5,'1111122,1111122,1111122' 
TCOON,ioos:station:TCOON:146:1,2014-11-10T08:30:00Z,28.1324,-97.0345,0.0,4.1,185.0,5.0,'1111122,1111122,1111122' 
TCOON,ioos:station:TCOON:146:1,2014-11-10T09:30:00Z,28.1324,-97.0345,0.0,4.6,197.0,5.6,'1111122,1111122,1111122' 
TCOON,ioos:station:TCOON:146:1,2014-11-10T10:30:00Z,28.1324,-97.0345,0.0,4.0,191.0,5.1,'1111122,1111122,1111122' 
TCOON,ioos:station:TCOON:146:1,2014-11-10T11:30:00Z,28.1324,-97.0345,0.0,3.9,202.0,4.3,'1111122,1111122,1111122' 
TCOON,ioos:station:TCOON:146:1,2014-11-10T12:30:00Z,28.1324,-97.0345,0.0,4.2,202.0,4.9,'1111122,1111122,1111122' 
TCOON,ioos:station:TCOON:146:1,2014-11-10T13:30:00Z,28.1324,-97.0345,0.0,5.2,194.0,6.5,'1111122,1111122,1111122' 
TCOON,ioos:station:TCOON:146:1,2014-11-10T14:30:00Z,28.1324,-97.0345,0.0,3.2,178.0,3.7,'1111122,1111122,1111122' 
TCOON,ioos:station:TCOON:146:1,2014-11-10T16:00:00Z,28.1324,-97.0345,0.0,6.2,165.0,8.8,'1111122,1111122,1111122' 
TCOON,ioos:station:TCOON:146:1,2014-11-10T16:30:00Z,28.1324,-97.0345,0.0,6.6,164.0,9.4,'1111122,1111122,1111122' 
TCOON,ioos:station:TCOON:146:1,2014-11-10T17:30:00Z,28.1324,-97.0345,0.0,8.0,163.0,11.0,'1111122,1111122,1111122' 
TCOON,ioos:station:TCOON:146:1,2014-11-10T18:30:00Z,28.1324,-97.0345,0.0,9.8,169.0,13.2,'1111122,1111122,1111122' 
TCOON,ioos:station:TCOON:146:1,2014-11-10T19:30:00Z,28.1324,-97.0345,0.0,8.8,162.0,12.3,'1111122,1111122,1111122' 
TCOON,ioos:station:TCOON:146:1,2014-11-10T20:30:00Z,28.1324,-97.0345,0.0,8.0,161.0,10.9,'1111122,1111122,1111122' 
TCOON,ioos:station:TCOON:146:1,2014-11-10T21:30:00Z,28.1324,-97.0345,0.0,7.7,162.0,10.1,'1111122,1111122,1111122' 
TCOON,ioos:station:TCOON:146:1,2014-11-10T22:30:00Z,28.1324,-97.0345,0.0,6.3,162.0,7.6,'1111122,1111122,1111122' 
TCOON,ioos:station:TCOON:146:1,2014-11-10T23:30:00Z,28.1324,-97.0345,0.0,6.4,167.0,7.9,'1111122,1111122,1111122' 
TCOON,ioos:station:TCOON:146:1,2014-11-11T00:30:00Z,28.1324,-97.0345,0.0,6.2,173.0,8.2,'1111122,1111122,1111122' 
TCOON,ioos:station:TCOON:146:1,2014-11-11T01:30:00Z,28.1324,-97.0345,0.0,8.1,170.0,10.5,'1111122,1111122,1111122' 
TCOON,ioos:station:TCOON:146:1,2014-11-11T02:30:00Z,28.1324,-97.0345,0.0,7.5,178.0,9.2,'1111122,1111122,1111122' 
TCOON,ioos:station:TCOON:146:1,2014-11-11T03:30:00Z,28.1324,-97.0345,0.0,7.5,183.0,10.2,'1111122,1111122,1111122' 
TCOON,ioos:station:TCOON:146:1,2014-11-11T04:30:00Z,28.1324,-97.0345,0.0,6.8,177.0,9.4,'1111122,1111122,1111122' 
TCOON,ioos:station:TCOON:146:1,2014-11-11T05:30:00Z,28.1324,-97.0345,0.0,6.5,174.0,8.2,'1111122,1111122,1111122' 
TCOON,ioos:station:TCOON:146:1,2014-11-11T06:30:00Z,28.1324,-97.0345,0.0,6.0,179.0,7.5,'1111122,1111122,1111122' 